Regional Weather Roundup
Issued by NWS

Home | Current Version | Previous Version | Graphics & Text | Print | Product List | Glossary On
Versions: 1 2 3 4 5 6 7 8 9 10 11 12 13 14 15 16 17 18 19 20 21 22 23 24 25 26 27 28 29 30 31 32 33 34 35 36 37 38 39 40 41 42 43 44 45 46 47 48 49 50
390
ASUS44 KLIX 220705
RWRLA
LOUISIANA WEATHER ROUNDUP
NATIONAL WEATHER SERVICE NEW ORLEANS LA
100 AM CST MON DEC 22 2014

NOTE: "FAIR" INDICATES FEW OR NO CLOUDS BELOW 12,000 FEET WITH NO
      SIGNIFICANT WEATHER AND/OR OBSTRUCTIONS TO VISIBILITY.
      SKY/WX - SKY CONDITION AND SIGNIFICANT WEATHER.
      TMP - AIR TEMPERATURE.    DP   - DEWPOINT TEMPERATURE.
      RH  - RELATIVE HUMIDITY.  PRES - PRESSURE.
      HX  - HEAT INDEX.         WCI  - WIND CHILL INDEX.

*  THESE STATIONS ARE NOT NWS OR FAA STATIONS AND ARE NOT UNDER
   NWS QUALITY CONTROL.

LAZ040-048-061>063-065-066-069-220800-
SOUTHEAST LOUISIANA

CITY           SKY/WX    TMP DP  RH WIND       PRES   REMARKS
N.O. AUDUBON     N/A     58  58  99 MISG        N/A
N.O. INTL ARPT CLOUDY    58  55  90 E5        29.91F FOG
N.O. LAKEFRONT FOG       58  55  90 E9        29.91F VSB 1/2
N.O. DOWNTOWN* CLOUDY    57  54  88 E8G17     29.91F VSB 1
SLIDELL        FOG       55  54  96 NE3       29.92F VSB 3/4
BATON ROUGE    CLOUDY    53  51  93 E7        29.90F FOG
BOOTHVILLE     FOG       58  58 100 E3        29.92S VSB 1
BELLE CHASSE   FOG       58  57  97 E10       29.90F VSB 3/4
BOGALUSA*        N/A     55  52  89 CALM      29.95F FOG
GALLIANO*      DRIZZLE   57  56  98 MISG      29.91F
NEW ROADS*     CLOUDY    53  52  97 SE8       29.90F FOG
GONZALES*      CLOUDY    55  55 100 CALM      29.90F FOG
HAMMOND*       NOT AVBL
HOUMA*         CLOUDY    56  55  99 CALM      29.91S FOG
PORT FOURCHON* CLOUDY    61  59  94 E6        29.95F FOG

$$

LAZ041-044-053-054-220800-
SOUTHWEST LOUISIANA

CITY           SKY/WX    TMP DP  RH WIND       PRES   REMARKS
LAKE CHARLES   CLOUDY    52  51  97 CALM      29.90F FOG
LAFAYETTE      CLOUDY    51  50  96 CALM      29.89F FOG
PATTERSON      CLOUDY    54  52  94 CALM      29.91F
SALT POINT       N/A     57  53  86 CALM      29.89F
NEW IBERIA     CLOUDY    52  50  93 CALM      29.89F FOG
CHENAULT AIRPK FOG       51  50  99 SE6       29.90F VSB 1/2

$$

LAZ027-028-220800-
CENTRAL LOUISIANA

CITY           SKY/WX    TMP DP  RH WIND       PRES   REMARKS
FORT POLK      FOG       49  49  98 S7        29.88F VSB 1/2
ALEXANDRIA INT CLOUDY    49  49 100 S3        29.89F FOG
ALEXANDRIA     CLOUDY    48  48 100 S3        29.89F

$$

LAZ001-002-220800-
NORTHWEST LOUISIANA

CITY           SKY/WX    TMP DP  RH WIND       PRES   REMARKS
SHREVEPORT     CLOUDY    49  47  93 SE7       29.83F
BARKSDALE AFB  NOT AVBL
DTN SHREVEPORT CLOUDY    49  46  90 SE8       29.84F

$$

LAZ014-016-220800-
NORTHEAST LOUISIANA

CITY           SKY/WX    TMP DP  RH WIND       PRES   REMARKS
MONROE         PTCLDY    47  47 100 S5        29.88F
TALLULAH       MOCLDY    50  47  89 SE12      29.90F

$$




USA.gov is the U.S. government's official web portal to all federal, state and local government web resources and services.